Weather History for Kirksville, MO

Change the Weather History Date:

Monday, January 2, 2012

  Actual Average Record
Temperature  
Mean Temperature 22 °F 26 °F  
Max Temperature 29 °F 35 °F 63 °F (2004)
Min Temperature 14 °F 18 °F -13 °F (1979)
Degree Days  
Heating Degree Days 43 39  
Month to date heating degree days 74 78  
Since 1 July heating degree days 2106 2421  
Cooling Degree Days 0 0  
Month to date cooling degree days 0 0  
Year to date cooling degree days 0 0  
Moisture  
Dew Point 7 °F    
Average Humidity 47    
Maximum Humidity 60    
Minimum Humidity 34    
Precipitation  
Precipitation 0.00 in 0.03 in 0.62 in (1965)
Month to date precipitation T 0.07  
Year to date precipitation T 0.07  
Sea Level Pressure  
Sea Level Pressure 30.50 in    
Wind  
Wind Speed 14 mph (NW)    
Max Wind Speed 26 mph    
Max Gust Speed 38 mph    
Visibility 10 miles    
Events      
T = Trace of Precipitation, MM = Missing Value Source: NWS Daily Summary

Daily Weather History Graph

Daily Weather History Graph

Search for Another Location

Airport:

Trip Planner

Search our weather history database for the weather conditions in past years. The results will help you decide how hot, cold, wet, or windy it might be!

Date:

Astronomy

Jan. 02, 2012 Rise Set
Actual Time 7:32 AM CST 4:55 PM CST
Civil Twilight 7:01 AM CST 5:26 PM CST
Nautical Twilight 6:28 AM CST 6:00 PM CST
Astronomical Twilight 5:55 AM CST 6:33 PM CST
Moon 12:12 PM CST (1/2) 1:25 AM CST (1/2)
Length of Visible Light 10h 24m
Length of Day
9h 23m
Waxing Gibbous, 64% of the Moon is Illuminated
Jan 2
Waxing Gibbous
Jan 9
Full
Jan 16
Last Quarter
Jan 23
New
Jan 30
First Quarter

Hourly Weather History & Observations

Time (CST) Temp. Windchill Dew Point Humidity Pressure Visibility Wind Dir Wind Speed Gust Speed Precip Events Conditions
12:55 AM 26.1 °F 14.5 °F 12.9 °F 58% 30.44 in 10.0 mi WNW 13.8 mph 23.0 mph N/A   Clear
1:55 AM 26.6 °F 15.2 °F 12.2 °F 55% 30.39 in 10.0 mi WNW 13.8 mph 23.0 mph N/A   Clear
2:55 AM 25.0 °F 12.2 °F 12.9 °F 60% 30.43 in 10.0 mi WNW 16.1 mph 23.0 mph N/A   Clear
3:55 AM 24.1 °F 10.6 °F 12.9 °F 62% 30.43 in 10.0 mi WNW 17.3 mph 26.5 mph N/A   Clear
4:55 AM 24.1 °F 9.4 °F 10.9 °F 57% 30.43 in 10.0 mi NW 20.7 mph 26.5 mph N/A   Clear
5:55 AM 23.0 °F 10.6 °F 10.0 °F 58% 30.45 in 10.0 mi NW 13.8 mph 26.5 mph N/A   Clear
6:55 AM 21.9 °F 7.3 °F 8.1 °F 55% 30.46 in 10.0 mi NW 18.4 mph 32.2 mph N/A   Clear
7:55 AM 21.0 °F 7.6 °F 9.0 °F 60% 30.48 in 10.0 mi WNW 15.0 mph 24.2 mph N/A   Clear
8:55 AM 23.0 °F 10.1 °F 9.0 °F 55% 30.50 in 10.0 mi NW 15.0 mph 23.0 mph N/A   Clear
9:55 AM 24.8 °F 10.7 °F 8.6 °F 50% 30.46 in 10.0 mi NW 19.6 mph 25.3 mph N/A   Clear
10:55 AM 26.1 °F 10.7 °F 6.1 °F 43% 30.51 in 10.0 mi NW 25.3 mph 34.5 mph N/A   Clear
11:55 AM 28.9 °F 16.9 °F 6.1 °F 38% 30.49 in 10.0 mi NW 17.3 mph 31.1 mph N/A   Clear
12:55 PM 28.9 °F 15.1 °F 3.9 °F 35% 30.48 in 10.0 mi NW 23.0 mph 38.0 mph N/A   Clear
1:55 PM 28.9 °F 16.9 °F 3.0 °F 33% 30.49 in 10.0 mi NW 17.3 mph 34.5 mph N/A   Clear
2:55 PM 28.0 °F 14.9 °F 3.9 °F 36% 30.51 in 10.0 mi NW 19.6 mph 32.2 mph N/A   Clear
3:55 PM 27.0 °F 15.6 °F 3.0 °F 36% 30.53 in 10.0 mi NW 13.8 mph 26.5 mph N/A   Clear
4:55 PM 25.0 °F 13.6 °F 1.9 °F 37% 30.55 in 10.0 mi NW 12.7 mph 25.3 mph N/A   Clear
5:55 PM 23.0 °F 13.1 °F 1.9 °F 40% 30.56 in 10.0 mi NW 9.2 mph - N/A   Clear
6:55 PM 19.9 °F 12.1 °F 3.0 °F 48% 30.57 in 10.0 mi WNW 5.8 mph - N/A   Clear
7:55 PM 18.0 °F 8.7 °F 3.9 °F 54% 30.57 in 10.0 mi WNW 6.9 mph - N/A   Clear
8:55 PM 18.0 °F 8.7 °F 5.0 °F 57% 30.57 in 10.0 mi WNW 6.9 mph - N/A   Clear
9:55 PM 17.1 °F 8.7 °F 5.0 °F 59% 30.57 in 10.0 mi NW 5.8 mph - N/A   Clear
10:55 PM 17.1 °F 10.0 °F 5.0 °F 59% 30.57 in 10.0 mi North 4.6 mph - N/A   Clear
11:55 PM 14.0 °F 8.2 °F 6.1 °F 71% 30.57 in 10.0 mi NW 3.5 mph - N/A   Clear